Weather History for Abingdon, VA

Change the Weather History Date:

Thursday, January 9, 2014

  Actual Average (KTRI) Record (KTRI)
Temperature  
Mean Temperature 40 °F 35 °F  
Max Temperature 55 °F 45 °F 76 °F (1946)
Min Temperature 26 °F 25 °F -4 °F (1970)
Degree Days  
Heating Degree Days 24 30  
Month to date heating degree days 270  
Since 1 July heating degree days 1999  
Cooling Degree Days 0 0  
Month to date cooling degree days 0  
Year to date cooling degree days 0  
Moisture  
Dew Point 22 °F    
Average Humidity 55    
Maximum Humidity 78    
Minimum Humidity 25    
Precipitation  
Precipitation 0.00 in 0.11 in 1.10 in (1957)
Month to date precipitation 0.94  
Year to date precipitation 0.94  
Snow  
Snow 0.00 in 0.20 in - ()
Month to date snowfall 1.3  
Since 1 July snowfall 4.0  
Snow Depth -    
Sea Level Pressure  
Sea Level Pressure 30.39 in    
Wind  
Wind Speed 3 mph (ESE)    
Max Wind Speed 10 mph    
Max Gust Speed -    
Visibility 10 miles    
Events      
T = Trace of Precipitation, MM = Missing Value Source: NWS Daily Summary

Daily Weather History Graph

Daily Weather History Graph

Search for Another Location

Airport:

Trip Planner

Search our weather history database for the weather conditions in past years. The results will help you decide how hot, cold, wet, or windy it might be!

Date:

Astronomy

Jan. 09, 2014 Rise Set
Actual Time 7:40 AM EST 5:30 PM EST
Civil Twilight 7:12 AM EST 5:58 PM EST
Nautical Twilight 6:40 AM EST 6:30 PM EST
Astronomical Twilight 6:09 AM EST 7:01 PM EST
Moon 12:52 PM EST (1/9) 1:51 AM EST (1/9)
Length of Visible Light 10h 46m
Length of Day
9h 49m
Waxing Gibbous, 66% of the Moon is Illuminated
Jan 9
Waxing Gibbous
Jan 15
Full
Jan 24
Last Quarter
Jan 30
New
Feb 6
First Quarter

Hourly Weather History & Observations

Time (EST) Temp. Windchill Dew Point Humidity Pressure Visibility Wind Dir Wind Speed Gust Speed Precip Events Conditions
12:15 AM 26.4 °F 19.8 °F 19.2 °F 74% 30.41 in 10.0 mi ESE 5.8 mph - N/A   Clear
12:35 AM 27.1 °F - 18.5 °F 70% 30.41 in 10.0 mi Calm Calm - N/A   Clear
12:55 AM 27.5 °F - 18.5 °F 69% 30.41 in 10.0 mi Calm Calm - N/A   Clear
1:15 AM 27.7 °F - 19.9 °F 73% 30.40 in 10.0 mi Calm Calm - N/A   Clear
1:35 AM 27.5 °F - 20.7 °F 75% 30.41 in 10.0 mi Calm Calm - N/A   Clear
1:55 AM 28.6 °F - 19.0 °F 67% 30.41 in 10.0 mi Calm Calm - N/A   Clear
2:15 AM 28.2 °F - 20.1 °F 72% 30.42 in 10.0 mi Calm Calm - N/A   Clear
2:35 AM 28.6 °F 24.8 °F 19.8 °F 70% 30.41 in 10.0 mi East 3.5 mph - N/A   Scattered Clouds
2:55 AM 29.7 °F 23.7 °F 19.9 °F 67% 30.41 in 10.0 mi East 5.8 mph - N/A   Scattered Clouds
3:15 AM 30.7 °F 27.3 °F 18.9 °F 61% 30.41 in 10.0 mi ENE 3.5 mph - N/A   Clear
3:35 AM 29.1 °F - 21.0 °F 72% 30.41 in 10.0 mi Calm Calm - N/A   Clear
3:55 AM 29.1 °F - 19.9 °F 69% 30.41 in 10.0 mi Calm Calm - N/A   Clear
4:15 AM 30.0 °F - 19.0 °F 64% 30.41 in 10.0 mi Calm Calm - N/A   Mostly Cloudy
4:35 AM 28.8 °F - 19.9 °F 70% 30.41 in 10.0 mi Calm Calm - N/A   Overcast
4:55 AM 28.2 °F - 19.6 °F 70% 30.42 in 10.0 mi Calm Calm - N/A   Overcast
5:15 AM 27.5 °F - 20.7 °F 75% 30.41 in 10.0 mi Calm Calm - N/A   Overcast
5:35 AM 28.4 °F - 21.0 °F 74% 30.42 in 10.0 mi Calm Calm - N/A   Overcast
5:55 AM 28.8 °F - 22.6 °F 78% 30.41 in 10.0 mi Calm Calm - N/A   Overcast
6:15 AM 30.4 °F 26.9 °F 19.9 °F 65% 30.41 in 10.0 mi ENE 3.5 mph - N/A   Overcast
6:35 AM 28.9 °F - 19.4 °F 68% 30.42 in 10.0 mi Calm Calm - N/A   Mostly Cloudy
6:55 AM 28.8 °F - 20.1 °F 70% 30.42 in 10.0 mi Calm Calm - N/A   Mostly Cloudy
7:15 AM 27.9 °F - 19.9 °F 72% 30.42 in 10.0 mi Calm Calm - N/A   Scattered Clouds
7:35 AM 26.4 °F 20.9 °F 19.4 °F 75% 30.43 in 10.0 mi SE 4.6 mph - N/A   Scattered Clouds
7:55 AM 27.5 °F 23.6 °F 19.4 °F 72% 30.43 in 10.0 mi East 3.5 mph - N/A   Clear
8:15 AM 29.8 °F 26.3 °F 20.3 °F 68% 30.44 in 10.0 mi ENE 3.5 mph - N/A   Clear
8:35 AM 31.6 °F 26.0 °F 20.3 °F 63% 30.44 in 10.0 mi ENE 5.8 mph - N/A   Scattered Clouds
8:55 AM 32.9 °F 27.5 °F 22.1 °F 65% 30.45 in 10.0 mi East 5.8 mph - N/A   Scattered Clouds
9:15 AM 34.5 °F 30.4 °F 22.8 °F 62% 30.45 in 10.0 mi ESE 4.6 mph - N/A   Clear
9:35 AM 36.5 °F 31.8 °F 23.2 °F 59% 30.46 in 10.0 mi ESE 5.8 mph - N/A   Scattered Clouds
9:55 AM 38.7 °F 33.6 °F 23.5 °F 55% 30.46 in 10.0 mi ESE 6.9 mph - N/A   Clear
10:15 AM 40.6 °F 36.0 °F 25.3 °F 54% 30.45 in 10.0 mi SE 6.9 mph - N/A   Clear
10:35 AM 42.1 °F 37.7 °F 25.0 °F 51% 30.46 in 10.0 mi ESE 6.9 mph - N/A   Clear
10:55 AM 42.4 °F 37.5 °F 23.4 °F 47% 30.46 in 10.0 mi SE 8.1 mph - N/A   Clear
11:15 AM 43.9 °F 39.3 °F 24.4 °F 46% 30.45 in 10.0 mi East 8.1 mph - N/A   Clear
11:35 AM 45.1 °F 40.3 °F 24.8 °F 45% 30.42 in 10.0 mi East 9.2 mph - N/A   Clear
11:55 AM 46.4 °F 44.3 °F 25.0 °F 43% 30.42 in 10.0 mi ESE 4.6 mph - N/A   Clear
12:15 PM 48.4 °F - 26.6 °F 43% 30.40 in 10.0 mi SE 3.5 mph - N/A   Clear
12:35 PM 49.3 °F - 25.9 °F 40% 30.37 in 10.0 mi ESE 4.6 mph - N/A   Clear
12:55 PM 50.7 °F - 26.2 °F 39% 30.36 in 10.0 mi East 4.6 mph - N/A   Clear
1:15 PM 51.8 °F - 27.1 °F 39% 30.35 in 10.0 mi SE 6.9 mph - N/A   Mostly Cloudy
1:35 PM 52.9 °F - 26.8 °F 36% 30.34 in 10.0 mi East 5.8 mph - N/A   Scattered Clouds
1:55 PM 52.3 °F - 25.5 °F 35% 30.33 in 10.0 mi ESE 4.6 mph - N/A   Scattered Clouds
2:15 PM 52.9 °F - 25.9 °F 35% 30.32 in 10.0 mi SE 4.6 mph - N/A   Mostly Cloudy
2:35 PM 55.2 °F - 26.2 °F 33% 30.32 in 10.0 mi SSE 5.8 mph - N/A   Overcast
2:55 PM 53.2 °F - 25.9 °F 35% 30.32 in 10.0 mi ESE 3.5 mph - N/A   Overcast
3:35 PM 53.1 °F - 24.6 °F 33% 30.32 in 10.0 mi ESE 5.8 mph - N/A   Overcast
3:55 PM 52.7 °F - 24.8 °F 34% 30.32 in 10.0 mi ESE 3.5 mph - N/A   Overcast
4:15 PM 51.6 °F - 25.9 °F 37% 30.32 in 10.0 mi ESE 4.6 mph - N/A   Scattered Clouds
4:35 PM 51.4 °F - 23.9 °F 34% 30.32 in 10.0 mi Calm Calm - N/A   Clear
4:55 PM 51.4 °F - 21.2 °F 31% 30.33 in 10.0 mi South 8.1 mph - N/A   Scattered Clouds
5:15 PM 50.9 °F - 16.3 °F 25% 30.35 in 10.0 mi SSW 6.9 mph - N/A   Scattered Clouds
6:35 PM 46.9 °F - 16.3 °F 29% 30.36 in 10.0 mi Calm Calm - N/A   Clear
6:55 PM 44.4 °F - 16.9 °F 33% 30.37 in 10.0 mi Calm Calm - N/A   Clear
7:15 PM 42.4 °F - 17.4 °F 37% 30.37 in 10.0 mi Calm Calm - N/A   Clear
7:35 PM 40.3 °F - 18.5 °F 42% 30.39 in 10.0 mi Calm Calm - N/A   Clear
7:55 PM 40.5 °F - 18.3 °F 41% 30.39 in 10.0 mi Calm Calm - N/A   Mostly Cloudy
8:15 PM 40.1 °F - 19.6 °F 44% 30.39 in 10.0 mi Calm Calm - N/A   Scattered Clouds
8:35 PM 39.4 °F - 20.8 °F 47% 30.39 in 10.0 mi Calm Calm - N/A   Scattered Clouds
8:55 PM 38.8 °F 34.6 °F 24.3 °F 56% 30.40 in 10.0 mi East 5.8 mph - N/A   Scattered Clouds
9:15 PM 38.7 °F - 24.1 °F 56% 30.40 in 10.0 mi Calm Calm - N/A   Overcast
9:35 PM 40.6 °F 34.3 °F 25.7 °F 55% 30.39 in 10.0 mi East 10.4 mph - N/A   Overcast
9:55 PM 40.5 °F 35.8 °F 25.7 °F 56% 30.38 in 10.0 mi East 6.9 mph - N/A   Overcast
10:15 PM 41.4 °F 35.7 °F 26.2 °F 55% 30.38 in 10.0 mi East 9.2 mph - N/A   Mostly Cloudy
10:35 PM 41.9 °F 36.3 °F 27.0 °F 55% 30.37 in 10.0 mi East 9.2 mph - N/A   Overcast
10:55 PM 41.4 °F 36.2 °F 26.4 °F 55% 30.38 in 10.0 mi ENE 8.1 mph - N/A   Overcast
11:15 PM 41.4 °F 36.2 °F 26.1 °F 55% 30.37 in 10.0 mi ENE 8.1 mph - N/A   Overcast
11:35 PM 41.5 °F 38.6 °F 26.4 °F 55% 30.35 in 10.0 mi East 4.6 mph - N/A   Overcast
11:55 PM 41.2 °F 37.3 °F 26.6 °F 56% 30.35 in 10.0 mi East 5.8 mph - N/A   Overcast